| time (UTC) | temp F | wind direction | speed MPH | gust MPH | rain 1hr in | rain 24hr in | rain mn in | humidity % | barometer mb |
| 20260902124015 | 77 | 225 | 2.0 | 5.0 | 0.00 | 0.00 | 0.00 | 77 | 1014.8 |
| 20260902123015 | 77 | 203 | 2.0 | 4.0 | 0.00 | 0.00 | 0.00 | 78 | 1014.9 |
| 20260902122017 | 77 | 203 | 2.0 | 5.0 | 0.00 | 0.00 | 0.00 | 79 | 1014.9 |
| 20260902121018 | 76 | 225 | 1.0 | 3.0 | 0.00 | 0.00 | 0.00 | 80 | 1014.8 |
| 20260902120017 | 76 | 270 | 1.0 | 3.0 | 0.00 | 0.00 | 0.00 | 80 | 1014.7 |
| 20260902115017 | 76 | 203 | 2.0 | 5.0 | 0.00 | 0.00 | 0.00 | 80 | 1014.5 |
| 20260902114018 | 76 | 225 | 2.0 | 5.0 | 0.00 | 0.00 | 0.00 | 80 | 1014.5 |
| 20260902113018 | 76 | 203 | 2.0 | 4.0 | 0.00 | 0.00 | 0.00 | 80 | 1014.6 |
| 20260902112018 | 76 | 225 | 2.0 | 5.0 | 0.00 | 0.00 | 0.00 | 80 | 1014.6 |
| 20260902111018 | 76 | 203 | 3.0 | 4.0 | 0.00 | 0.00 | 0.00 | 80 | 1014.6 |
| 20260902110017 | 76 | 225 | 3.0 | 7.0 | 0.00 | 0.00 | 0.00 | 80 | 1014.7 |
| 20260902105017 | 76 | 225 | 2.0 | 5.0 | 0.00 | 0.00 | 0.00 | 80 | 1014.9 |
| 20260902104017 | 76 | 225 | 2.0 | 3.0 | 0.00 | 0.00 | 0.00 | 80 | 1014.8 |
| 20260902103017 | 77 | 203 | 2.0 | 4.0 | 0.00 | 0.00 | 0.00 | 79 | 1014.8 |
| 20260902102017 | 77 | 203 | 2.0 | 4.0 | 0.00 | 0.00 | 0.00 | 79 | 1014.9 |
| 20260902101018 | 77 | 203 | 2.0 | 4.0 | 0.00 | 0.00 | 0.00 | 78 | 1014.8 |
| 20260902100017 | 77 | 225 | 2.0 | 5.0 | 0.00 | 0.00 | 0.00 | 78 | 1014.8 |
| 20260902095017 | 78 | 203 | 2.0 | 4.0 | 0.00 | 0.00 | 0.00 | 77 | 1014.9 |
| 20260902094017 | 78 | 225 | 2.0 | 4.0 | 0.00 | 0.00 | 0.00 | 77 | 1014.9 |
| 20260902093017 | 77 | 0.0 | 2.0 | 0.00 | 0.00 | 0.00 | 78 | 1014.8 | |
| 20260902092018 | 78 | 225 | 1.0 | 2.0 | 0.00 | 0.00 | 0.00 | 78 | 1014.8 |
| 20260902091017 | 78 | 225 | 1.0 | 2.0 | 0.00 | 0.00 | 0.00 | 78 | 1014.7 |
| 20260902090018 | 78 | 225 | 1.0 | 3.0 | 0.00 | 0.00 | 0.00 | 78 | 1014.7 |
| 20260902085017 | 78 | 203 | 1.0 | 3.0 | 0.00 | 0.00 | 0.00 | 78 | 1014.6 |
| 20260902084017 | 78 | 203 | 1.0 | 3.0 | 0.00 | 0.00 | 0.00 | 78 | 1014.6 |
| 20260902083018 | 78 | 180 | 1.0 | 3.0 | 0.00 | 0.00 | 0.00 | 77 | 1014.6 |
| 20260902082018 | 78 | 203 | 1.0 | 3.0 | 0.00 | 0.00 | 0.00 | 77 | 1014.5 |
| 20260902081017 | 78 | 225 | 1.0 | 3.0 | 0.00 | 0.00 | 0.00 | 77 | 1014.6 |
| 20260902080018 | 78 | 225 | 1.0 | 4.0 | 0.00 | 0.00 | 0.00 | 77 | 1014.5 |
| 20260902075017 | 78 | 203 | 2.0 | 4.0 | 0.00 | 0.00 | 0.00 | 77 | 1014.4 |
| 20260902074017 | 78 | 225 | 1.0 | 4.0 | 0.00 | 0.00 | 0.00 | 77 | 1014.5 |
| 20260902073018 | 78 | 225 | 1.0 | 3.0 | 0.00 | 0.00 | 0.00 | 77 | 1014.6 |
| 20260902072018 | 78 | 0.0 | 2.0 | 0.00 | 0.00 | 0.00 | 77 | 1014.6 | |
| 20260902071017 | 79 | 225 | 1.0 | 3.0 | 0.00 | 0.00 | 0.00 | 78 | 1014.6 |
| 20260902070017 | 79 | 225 | 2.0 | 4.0 | 0.00 | 0.00 | 0.00 | 78 | 1014.5 |
| 20260902065017 | 79 | 225 | 1.0 | 3.0 | 0.00 | 0.00 | 0.00 | 78 | 1014.7 |
| 20260902064017 | 79 | 225 | 1.0 | 4.0 | 0.00 | 0.00 | 0.00 | 78 | 1014.7 |
| 20260902063017 | 79 | 203 | 1.0 | 3.0 | 0.00 | 0.00 | 0.00 | 77 | 1014.6 |
| 20260902062017 | 80 | 225 | 1.0 | 3.0 | 0.00 | 0.00 | 0.00 | 77 | 1014.7 |
| 20260902061018 | 80 | 225 | 2.0 | 5.0 | 0.00 | 0.00 | 0.00 | 76 | 1014.6 |
| 20260902060017 | 80 | 225 | 2.0 | 5.0 | 0.00 | 0.00 | 0.00 | 76 | 1014.6 |
| 20260902055018 | 80 | 225 | 2.0 | 4.0 | 0.00 | 0.00 | 0.00 | 76 | 1014.5 |
| 20260902054018 | 80 | 225 | 2.0 | 4.0 | 0.00 | 0.00 | 0.00 | 76 | 1014.3 |
| 20260902053017 | 81 | 225 | 2.0 | 5.0 | 0.00 | 0.00 | 0.00 | 76 | 1014.5 |
| 20260902052017 | 81 | 225 | 3.0 | 6.0 | 0.00 | 0.00 | 0.00 | 76 | 1014.6 |
| 20260902051017 | 81 | 225 | 3.0 | 6.0 | 0.00 | 0.00 | 0.00 | 76 | 1014.5 |
| 20260902050017 | 81 | 225 | 2.0 | 6.0 | 0.00 | 0.00 | 0.00 | 76 | 1014.5 |
| 20260902045016 | 81 | 225 | 2.0 | 5.0 | 0.00 | 0.00 | 0.00 | 76 | 1014.5 |
| 20260902044016 | 81 | 225 | 2.0 | 4.0 | 0.00 | 0.00 | 0.00 | 76 | 1014.5 |
| 20260902043016 | 81 | 225 | 2.0 | 4.0 | 0.00 | 0.00 | 0.00 | 76 | 1014.4 |
| 20260902042016 | 81 | 225 | 2.0 | 4.0 | 0.00 | 0.00 | 0.00 | 76 | 1014.3 |
| 20260902041016 | 82 | 225 | 1.0 | 3.0 | 0.00 | 0.00 | 0.00 | 75 | 1014.5 |
| 20260902040016 | 82 | 203 | 1.0 | 3.0 | 0.00 | 0.00 | 0.00 | 75 | 1014.5 |
| 20260902035016 | 82 | 203 | 2.0 | 5.0 | 0.00 | 0.00 | 0.00 | 75 | 1014.5 |
| 20260902034016 | 82 | 203 | 2.0 | 3.0 | 0.00 | 0.00 | 0.00 | 75 | 1014.6 |
| 20260902033026 | 83 | 203 | 2.0 | 4.0 | 0.00 | 0.00 | 0.00 | 74 | 1014.6 |
| 20260902032016 | 83 | 225 | 2.0 | 4.0 | 0.00 | 0.00 | 0.00 | 74 | 1014.7 |
| 20260902031016 | 83 | 225 | 2.0 | 3.0 | 0.00 | 0.00 | 0.00 | 74 | 1014.7 |
| 20260902030016 | 83 | 225 | 1.0 | 3.0 | 0.00 | 0.00 | 0.00 | 74 | 1014.8 |
| 20260902025016 | 83 | 203 | 1.0 | 4.0 | 0.00 | 0.00 | 0.00 | 74 | 1014.7 |
| 20260902024016 | 84 | 203 | 1.0 | 4.0 | 0.00 | 0.00 | 0.00 | 74 | 1014.7 |
| 20260902023016 | 84 | 203 | 1.0 | 3.0 | 0.00 | 0.00 | 0.00 | 74 | 1014.6 |
| 20260902022016 | 84 | 203 | 1.0 | 3.0 | 0.00 | 0.00 | 0.00 | 75 | 1014.6 |
| 20260902021017 | 84 | 203 | 1.0 | 3.0 | 0.00 | 0.00 | 0.00 | 74 | 1014.6 |
| 20260902020016 | 84 | 203 | 1.0 | 3.0 | 0.00 | 0.00 | 0.00 | 74 | 1014.4 |
| 20260902015016 | 84 | 225 | 2.0 | 4.0 | 0.00 | 0.00 | 0.00 | 74 | 1014.3 |
| 20260902014016 | 85 | 203 | 1.0 | 3.0 | 0.00 | 0.00 | 0.00 | 73 | 1014.2 |
| 20260902013016 | 85 | 0.0 | 2.0 | 0.00 | 0.00 | 0.00 | 72 | 1014.1 | |
| 20260902012016 | 85 | 225 | 1.0 | 3.0 | 0.00 | 0.00 | 0.00 | 71 | 1013.9 |
| 20260902011016 | 86 | 0.0 | 2.0 | 0.00 | 0.00 | 0.00 | 70 | 1013.8 | |
| 20260902010016 | 87 | 203 | 1.0 | 3.0 | 0.00 | 0.00 | 0.00 | 69 | 1013.6 |
| 20260902005016 | 87 | 203 | 2.0 | 4.0 | 0.00 | 0.00 | 0.00 | 68 | 1013.5 |
| 20260902004017 | 87 | 203 | 2.0 | 4.0 | 0.00 | 0.00 | 0.00 | 67 | 1013.5 |
| 20260902003016 | 88 | 203 | 2.0 | 4.0 | 0.00 | 0.00 | 0.00 | 67 | 1013.5 |
| 20260902002016 | 88 | 203 | 2.0 | 4.0 | 0.00 | 0.00 | 0.00 | 66 | 1013.5 |
| 20260902001016 | 89 | 225 | 3.0 | 7.0 | 0.00 | 0.00 | 0.00 | 66 | 1013.4 |
| 20260902000016 | 89 | 225 | 3.0 | 8.0 | 0.00 | 0.00 | 0.00 | 66 | 1013.4 |
| 20260901235016 | 89 | 203 | 3.0 | 7.0 | 0.00 | 0.00 | 0.00 | 66 | 1013.5 |
| 20260901234016 | 89 | 203 | 3.0 | 9.0 | 0.00 | 0.00 | 0.00 | 66 | 1013.7 |
| 20260901233016 | 90 | 203 | 3.0 | 7.0 | 0.00 | 0.00 | 0.00 | 65 | 1013.7 |
| 20260901232016 | 90 | 203 | 3.0 | 6.0 | 0.00 | 0.01 | 0.00 | 65 | 1013.8 |
| 20260901231016 | 90 | 203 | 2.0 | 4.0 | 0.00 | 0.01 | 0.00 | 65 | 1013.8 |
| 20260901230016 | 90 | 225 | 2.0 | 7.0 | 0.00 | 0.01 | 0.00 | 64 | 1013.7 |
| 20260901225016 | 90 | 203 | 3.0 | 7.0 | 0.00 | 0.01 | 0.00 | 64 | 1013.8 |
| 20260901224016 | 90 | 203 | 2.0 | 6.0 | 0.00 | 0.01 | 0.00 | 65 | 1014.0 |
| 20260901223016 | 91 | 203 | 2.0 | 7.0 | 0.00 | 0.01 | 0.00 | 64 | 1014.0 |
| 20260901222017 | 91 | 203 | 2.0 | 8.0 | 0.00 | 0.01 | 0.00 | 64 | 1014.0 |
| 20260901221016 | 91 | 203 | 3.0 | 7.0 | 0.00 | 0.01 | 0.00 | 62 | 1014.1 |
| 20260901220016 | 91 | 203 | 4.0 | 11.0 | 0.00 | 0.01 | 0.00 | 62 | 1014.0 |
| 20260901215016 | 91 | 203 | 2.0 | 5.0 | 0.00 | 0.01 | 0.00 | 64 | 1013.9 |
| 20260901214016 | 92 | 203 | 2.0 | 5.0 | 0.00 | 0.01 | 0.00 | 62 | 1013.9 |
| 20260901213016 | 92 | 203 | 1.0 | 4.0 | 0.00 | 0.02 | 0.00 | 63 | 1013.9 |
| 20260901212016 | 92 | 203 | 1.0 | 4.0 | 0.00 | 0.02 | 0.00 | 61 | 1014.0 |
| 20260901211016 | 92 | 225 | 2.0 | 6.0 | 0.00 | 0.02 | 0.00 | 61 | 1014.1 |
| 20260901210016 | 93 | 180 | 2.0 | 9.0 | 0.00 | 0.02 | 0.00 | 60 | 1014.2 |
| 20260901205016 | 93 | 203 | 3.0 | 7.0 | 0.00 | 0.02 | 0.00 | 60 | 1014.2 |
| 20260901204016 | 93 | 203 | 3.0 | 7.0 | 0.00 | 0.02 | 0.00 | 60 | 1014.2 |
| 20260901203016 | 93 | 203 | 3.0 | 8.0 | 0.00 | 0.02 | 0.00 | 60 | 1014.4 |
| 20260901202016 | 93 | 203 | 3.0 | 9.0 | 0.00 | 0.02 | 0.00 | 61 | 1014.3 |
| 20260901201016 | 94 | 225 | 3.0 | 8.0 | 0.00 | 0.02 | 0.00 | 60 | 1014.4 |
| 20260901200018 | 94 | 248 | 1.0 | 2.0 | 0.00 | 0.03 | 0.00 | 62 | 1014.5 |
| 20260901195016 | 93 | 225 | 2.0 | 6.0 | 0.00 | 0.03 | 0.00 | 61 | 1014.4 |
| 20260901194016 | 93 | 203 | 2.0 | 7.0 | 0.00 | 0.03 | 0.00 | 60 | 1014.5 |
| 20260901193016 | 94 | 180 | 3.0 | 8.0 | 0.00 | 0.03 | 0.00 | 60 | 1014.6 |
| 20260901192016 | 94 | 203 | 2.0 | 7.0 | 0.00 | 0.03 | 0.00 | 60 | 1014.6 |
| 20260901191016 | 94 | 203 | 2.0 | 10.0 | 0.00 | 0.03 | 0.00 | 58 | 1014.6 |
| 20260901190016 | 94 | 225 | 1.0 | 4.0 | 0.00 | 0.03 | 0.00 | 58 | 1014.8 |
| 20260901185016 | 93 | 225 | 1.0 | 6.0 | 0.00 | 0.04 | 0.00 | 61 | 1014.6 |
| 20260901184016 | 93 | 225 | 2.0 | 6.0 | 0.00 | 0.04 | 0.00 | 63 | 1014.9 |
| 20260901183016 | 93 | 225 | 2.0 | 7.0 | 0.00 | 0.04 | 0.00 | 62 | 1014.9 |
| 20260901182016 | 93 | 135 | 1.0 | 7.0 | 0.00 | 0.04 | 0.00 | 61 | 1014.9 |
| 20260901181016 | 92 | 180 | 2.0 | 6.0 | 0.00 | 0.04 | 0.00 | 61 | 1014.8 |
| 20260901180016 | 92 | 248 | 1.0 | 4.0 | 0.00 | 0.04 | 0.00 | 64 | 1015.0 |
| 20260901175016 | 92 | 180 | 1.0 | 5.0 | 0.00 | 0.04 | 0.00 | 64 | 1015.1 |
| 20260901174017 | 91 | 45 | 1.0 | 4.0 | 0.00 | 0.04 | 0.00 | 68 | 1015.2 |
| 20260901173016 | 91 | 225 | 1.0 | 3.0 | 0.00 | 0.04 | 0.00 | 67 | 1015.3 |
| 20260901172016 | 90 | 0.0 | 3.0 | 0.00 | 0.04 | 0.00 | 70 | 1015.2 | |
| 20260901171016 | 89 | 225 | 2.0 | 5.0 | 0.00 | 0.04 | 0.00 | 70 | 1015.3 |
| 20260901170016 | 88 | 248 | 1.0 | 3.0 | 0.00 | 0.04 | 0.00 | 71 | 1015.4 |
| 20260901165016 | 87 | 270 | 1.0 | 3.0 | 0.00 | 0.04 | 0.00 | 73 | 1015.5 |
| 20260901164016 | 87 | 0.0 | 4.0 | 0.00 | 0.04 | 0.00 | 75 | 1015.7 | |
| 20260901163016 | 86 | 23 | 1.0 | 3.0 | 0.00 | 0.04 | 0.00 | 75 | 1015.7 |
| 20260901162016 | 85 | 248 | 1.0 | 3.0 | 0.00 | 0.04 | 0.00 | 78 | 1015.6 |
| 20260901161016 | 84 | 225 | 1.0 | 5.0 | 0.00 | 0.04 | 0.00 | 77 | 1015.6 |
| 20260901160016 | 84 | 180 | 1.0 | 4.0 | 0.00 | 0.04 | 0.00 | 78 | 1015.5 |
| 20260901155016 | 83 | 270 | 1.0 | 3.0 | 0.00 | 0.04 | 0.00 | 79 | 1015.5 |
| 20260901154016 | 82 | 248 | 1.0 | 2.0 | 0.00 | 0.04 | 0.00 | 80 | 1015.5 |
| 20260901153017 | 82 | 225 | 1.0 | 3.0 | 0.00 | 0.04 | 0.00 | 80 | 1015.5 |
| 20260901152016 | 82 | 225 | 1.0 | 4.0 | 0.00 | 0.05 | 0.00 | 80 | 1015.4 |
| 20260901151016 | 82 | 0.0 | 3.0 | 0.00 | 0.05 | 0.00 | 81 | 1015.4 | |
| 20260901150016 | 81 | 225 | 2.0 | 4.0 | 0.00 | 0.05 | 0.00 | 80 | 1015.4 |
| 20260901145016 | 81 | 203 | 2.0 | 6.0 | 0.00 | 0.05 | 0.00 | 80 | 1015.4 |
| 20260901144016 | 81 | 225 | 1.0 | 4.0 | 0.00 | 0.06 | 0.00 | 80 | 1015.3 |
| 20260901143016 | 81 | 0.0 | 4.0 | 0.00 | 0.06 | 0.00 | 81 | 1015.3 | |
| 20260901142016 | 81 | 203 | 2.0 | 5.0 | 0.00 | 0.06 | 0.00 | 81 | 1015.3 |
| 20260901141016 | 80 | 203 | 2.0 | 5.0 | 0.00 | 0.07 | 0.00 | 82 | 1015.3 |
| 20260901140016 | 80 | 203 | 2.0 | 6.0 | 0.00 | 0.07 | 0.00 | 82 | 1015.3 |
| 20260901135016 | 79 | 203 | 1.0 | 3.0 | 0.00 | 0.08 | 0.00 | 83 | 1015.3 |
| 20260901134016 | 79 | 225 | 1.0 | 4.0 | 0.00 | 0.09 | 0.00 | 83 | 1015.3 |
| 20260901133016 | 78 | 203 | 3.0 | 6.0 | 0.00 | 0.10 | 0.00 | 84 | 1015.2 |
| 20260901132016 | 78 | 203 | 2.0 | 6.0 | 0.00 | 0.11 | 0.00 | 85 | 1015.3 |
| 20260901131016 | 77 | 203 | 2.0 | 4.0 | 0.00 | 0.13 | 0.00 | 86 | 1015.3 |
| 20260901130016 | 76 | 203 | 2.0 | 6.0 | 0.00 | 0.13 | 0.00 | 87 | 1015.4 |
| 20260901125016 | 76 | 203 | 2.0 | 4.0 | 0.00 | 0.13 | 0.00 | 88 | 1015.3 |